sat.trackr.live / text

‹ back to catalog

STARLINK-38069

NORAD 69761 · 2026-150Y

PAYLOAD ACTIVE UNKNOWN

§ Identity

Operator
Country
US
Launch date
2026-07-02
Launch site
AFWTR
Launch vehicle
Mass (kg)
RCS (m²)

Purposes: comms

External: N2YO · Heavens-Above · Gunter

§ Orbital elements

Epoch: 2026-09-19T23:30:51.327936Z

Period
93.91 min
Inclination
97.2891°
Eccentricity
0.0002317
Mean motion
15.33450290 rev/d
Perigee alt
463.9 km
Apogee alt
467.1 km
Semi-major
6,843.7 km
B*
5.0189e-4
RAAN
101.8825°
Arg perigee
90.4139°
Mean anomaly
269.7369°
Rev number
1,365

§ Raw data

STARLINK-380691 69761U 26150Y   26262.97976074  .00016166  00000+0  50189-3 0  99952 69761  97.2891 101.8825 0002317  90.4139 269.7369 15.33450290 13650

JSON: /api/v1/satellites/69761 · /tle

For live sub-satellite position, see the globe view (requires WebGL).

§ Visibility from observer

Set your observer location to see the next 7 days of passes ≥ 10°. The values pass through the URL so the page stays shareable.

No JS? Fill the form by hand. The geolocation button needs JavaScript.